Stündliche Wetter Labutino

Heute, 18 Mai, Dienstag

Zeit Temperatur Niederschläge Wind Luftdruck Luftfeuchtigkeit
00:00 +18°C° 0 mm 3 m/S 743 mmHg 87%
01:00 +18°C° 0 mm 4 m/S 743 mmHg 85%
02:00 +18°C° 0 mm 4 m/S 743 mmHg 84%
03:00 +18°C° 0 mm 4 m/S 742 mmHg 82%
04:00 +18°C° 0 mm 4 m/S 742 mmHg 80%
05:00 +17°C° 0 mm 4 m/S 742 mmHg 78%
06:00 +17°C° 0 mm 4 m/S 742 mmHg 76%
07:00 +19°C° 0 mm 4 m/S 742 mmHg 70%
08:00 +21°C° 0 mm 4 m/S 742 mmHg 63%
09:00 +22°C° 0 mm 5 m/S 742 mmHg 57%
10:00 +23°C° 0 mm 5 m/S 742 mmHg 53%
11:00 +26°C° 0 mm 6 m/S 743 mmHg 50%
12:00 +27°C° 0 mm 6 m/S 743 mmHg 46%
13:00 +27°C° 0 mm 6 m/S 742 mmHg 46%
14:00 +28°C° 0 mm 6 m/S 742 mmHg 46%
15:00 +28°C° 0 mm 6 m/S 742 mmHg 47%
16:00 +28°C° 0 mm 6 m/S 742 mmHg 48%
17:00 +27°C° 0 mm 6 m/S 741 mmHg 50%
18:00 +26°C° 0 mm 5 m/S 741 mmHg 52%
19:00 +24°C° 0 mm 6 m/S 741 mmHg 56%
20:00 +23°C° 0 mm 6 m/S 741 mmHg 60%
21:00 +22°C° 0 mm 6 m/S 741 mmHg 64%
22:00 +21°C° 0 mm 5 m/S 741 mmHg 69%
23:00 +20°C° 0 mm 4 m/S 741 mmHg 75%

Morgen, 19 Mai, Mittwoch

Zeit Temperatur Niederschläge Wind Luftdruck Luftfeuchtigkeit
00:00 +19°C° 0 mm 3 m/S 741 mmHg 80%
01:00 +18°C° 0 mm 3 m/S 741 mmHg 82%
02:00 +17°C° 0 mm 3 m/S 741 mmHg 84%
03:00 +17°C° 0 mm 3 m/S 741 mmHg 85%
04:00 +17°C° 0 mm 3 m/S 741 mmHg 85%
05:00 +17°C° 0 mm 3 m/S 741 mmHg 85%
06:00 +17°C° 0 mm 3 m/S 740 mmHg 84%
07:00 +18°C° 0 mm 4 m/S 741 mmHg 80%
08:00 +19°C° 0 mm 4 m/S 741 mmHg 75%
09:00 +21°C° 0 mm 5 m/S 742 mmHg 71%
10:00 +21°C° 0 mm 5 m/S 742 mmHg 66%
11:00 +22°C° 0 mm 5 m/S 742 mmHg 62%
12:00 +23°C° 0 mm 5 m/S 742 mmHg 57%
13:00 +25°C° 0.1 mm 5 m/S 742 mmHg 57%
14:00 +25°C° 0.1 mm 5 m/S 742 mmHg 56%
15:00 +24°C° 0.1 mm 6 m/S 742 mmHg 56%
16:00 +23°C° 0.2 mm 5 m/S 742 mmHg 60%
17:00 +23°C° 0.2 mm 4 m/S 741 mmHg 65%
18:00 +22°C° 0.2 mm 4 m/S 741 mmHg 69%
19:00 +21°C° 0.2 mm 3 m/S 741 mmHg 74%
20:00 +20°C° 0.2 mm 2 m/S 741 mmHg 79%
21:00 +18°C° 0.2 mm 2 m/S 741 mmHg 84%
22:00 +18°C° 0.4 mm 2 m/S 741 mmHg 86%
23:00 +17°C° 0.4 mm 2 m/S 740 mmHg 89%

übermorgen, 20 Mai, Donnerstag

Zeit Temperatur Niederschläge Wind Luftdruck Luftfeuchtigkeit
00:00 +17°C° 0.4 mm 2 m/S 740 mmHg 91%
01:00 +16°C° 0.2 mm 2 m/S 740 mmHg 92%
02:00 +16°C° 0.2 mm 3 m/S 740 mmHg 94%
03:00 +16°C° 0.2 mm 3 m/S 739 mmHg 95%
04:00 +16°C° 0 mm 3 m/S 739 mmHg 94%
05:00 +15°C° 0 mm 4 m/S 739 mmHg 93%
06:00 +15°C° 0 mm 4 m/S 739 mmHg 91%
07:00 +16°C° 0 mm 5 m/S 739 mmHg 87%
08:00 +16°C° 0 mm 6 m/S 740 mmHg 82%
09:00 +16°C° 0 mm 7 m/S 740 mmHg 77%
10:00 +17°C° 0.2 mm 7 m/S 740 mmHg 74%
11:00 +17°C° 0.2 mm 7 m/S 740 mmHg 70%
12:00 +18°C° 0.2 mm 7 m/S 740 mmHg 66%
13:00 +18°C° 0.3 mm 7 m/S 740 mmHg 68%
14:00 +18°C° 0.3 mm 7 m/S 740 mmHg 69%
15:00 +18°C° 0.3 mm 7 m/S 740 mmHg 70%
16:00 +17°C° 0.3 mm 6 m/S 740 mmHg 72%
17:00 +17°C° 0.3 mm 6 m/S 740 mmHg 74%
18:00 +16°C° 0.3 mm 6 m/S 740 mmHg 75%
19:00 +15°C° 0.1 mm 5 m/S 740 mmHg 79%
20:00 +14°C° 0.1 mm 5 m/S 740 mmHg 83%
21:00 +13°C° 0.1 mm 4 m/S 740 mmHg 87%
22:00 +13°C° 0 mm 4 m/S 740 mmHg 87%
23:00 +12°C° 0 mm 3 m/S 740 mmHg 88%

21 Mai, Freitag

Zeit Temperatur Niederschläge Wind Luftdruck Luftfeuchtigkeit
00:00 +11°C° 0 mm 3 m/S 740 mmHg 89%
01:00 +11°C° 0 mm 3 m/S 740 mmHg 89%
02:00 +10°C° 0 mm 3 m/S 741 mmHg 89%
03:00 +10°C° 0 mm 3 m/S 741 mmHg 88%
04:00 +10°C° 0 mm 3 m/S 741 mmHg 88%
05:00 +10°C° 0 mm 3 m/S 741 mmHg 87%
06:00 +11°C° 0 mm 3 m/S 741 mmHg 86%
07:00 +11°C° 0.1 mm 4 m/S 742 mmHg 87%
08:00 +11°C° 0.1 mm 4 m/S 742 mmHg 87%
09:00 +11°C° 0.1 mm 4 m/S 743 mmHg 88%
10:00 +11°C° 0 mm 4 m/S 743 mmHg 85%
11:00 +11°C° 0 mm 4 m/S 744 mmHg 83%
12:00 +12°C° 0 mm 5 m/S 745 mmHg 80%
13:00 +13°C° 0 mm 4 m/S 745 mmHg 73%
14:00 +15°C° 0 mm 4 m/S 745 mmHg 66%
15:00 +17°C° 0 mm 4 m/S 745 mmHg 59%
16:00 +17°C° 0 mm 3 m/S 746 mmHg 56%
17:00 +18°C° 0 mm 2 m/S 746 mmHg 54%
18:00 +18°C° 0 mm 2 m/S 746 mmHg 52%
19:00 +17°C° 0 mm 2 m/S 746 mmHg 57%
20:00 +15°C° 0 mm 1 m/S 747 mmHg 63%
21:00 +14°C° 0 mm 1 m/S 747 mmHg 69%
22:00 +13°C° 0 mm 1 m/S 747 mmHg 70%
23:00 +13°C° 0 mm 1 m/S 747 mmHg 71%

22 Mai, Samstag

Zeit Temperatur Niederschläge Wind Luftdruck Luftfeuchtigkeit
00:00 +12°C° 0 mm 1 m/S 748 mmHg 72%
01:00 +12°C° 0 mm 1 m/S 748 mmHg 73%
02:00 +12°C° 0 mm 1 m/S 748 mmHg 75%
03:00 +11°C° 0 mm 1 m/S 748 mmHg 76%
04:00 +12°C° 0 mm 1 m/S 748 mmHg 76%
05:00 +12°C° 0 mm 1 m/S 748 mmHg 77%
06:00 +12°C° 0 mm 1 m/S 748 mmHg 77%
07:00 +13°C° 0 mm 1 m/S 748 mmHg 74%
08:00 +14°C° 0 mm 1 m/S 748 mmHg 71%
09:00 +16°C° 0 mm 1 m/S 748 mmHg 69%
10:00 +18°C° 0 mm 1 m/S 748 mmHg 64%
11:00 +18°C° 0 mm 2 m/S 748 mmHg 60%
12:00 +19°C° 0 mm 2 m/S 748 mmHg 56%
13:00 +19°C° 0 mm 2 m/S 748 mmHg 55%
14:00 +19°C° 0 mm 2 m/S 748 mmHg 54%
15:00 +19°C° 0 mm 2 m/S 748 mmHg 54%
16:00 +19°C° 0 mm 2 m/S 748 mmHg 55%
17:00 +19°C° 0 mm 2 m/S 748 mmHg 57%
18:00 +19°C° 0 mm 2 m/S 748 mmHg 59%
19:00 +17°C° 0 mm 2 m/S 748 mmHg 66%
20:00 +15°C° 0 mm 2 m/S 748 mmHg 74%
21:00 +14°C° 0 mm 2 m/S 748 mmHg 82%
22:00 +13°C° 0 mm 2 m/S 748 mmHg 85%
23:00 +12°C° 0 mm 2 m/S 749 mmHg 88%

23 Mai, Sonntag

Zeit Temperatur Niederschläge Wind Luftdruck Luftfeuchtigkeit
00:00 +10°C° 0 mm 2 m/S 749 mmHg 91%
01:00 +10°C° 0 mm 2 m/S 749 mmHg 92%
02:00 +9°C° 0 mm 2 m/S 748 mmHg 93%
03:00 +9°C° 0 mm 2 m/S 748 mmHg 93%
04:00 +9°C° 0 mm 2 m/S 748 mmHg 93%
05:00 +10°C° 0 mm 2 m/S 748 mmHg 92%
06:00 +10°C° 0 mm 2 m/S 748 mmHg 91%
07:00 +11°C° 0 mm 3 m/S 747 mmHg 88%
08:00 +12°C° 0 mm 3 m/S 747 mmHg 85%
09:00 +13°C° 0 mm 3 m/S 746 mmHg 81%
10:00 +14°C° 0 mm 3 m/S 746 mmHg 81%
11:00 +16°C° 0 mm 3 m/S 746 mmHg 81%
12:00 +16°C° 0 mm 3 m/S 745 mmHg 81%
13:00 +17°C° 0 mm 3 m/S 745 mmHg 79%
14:00 +18°C° 0 mm 4 m/S 745 mmHg 77%
15:00 +19°C° 0 mm 4 m/S 744 mmHg 75%
16:00 +19°C° 0 mm 4 m/S 744 mmHg 76%
17:00 +19°C° 0 mm 3 m/S 744 mmHg 77%
18:00 +19°C° 0 mm 3 m/S 744 mmHg 77%
19:00 +18°C° 0 mm 3 m/S 743 mmHg 80%
20:00 +17°C° 0 mm 3 m/S 743 mmHg 82%
21:00 +16°C° 0 mm 3 m/S 743 mmHg 85%
22:00 +16°C° 0 mm 3 m/S 743 mmHg 85%
23:00 +15°C° 0 mm 4 m/S 744 mmHg 85%
Mehr zeigen

Wir brauchen deine Erlaubnis

Meteoprog und unser Service Anbieter werden persönliche Daten aufbewahren, so wie Cookies, Geräte Bezeichnung oder ähnliche Technologien von deinem Gerät und Prozess, so wie Persönliche Daten Inhalte und Werbungen, genauso wie social Media und den Verkehr zu analysieren.

  • Aufbewahrung und/oder Zugang zu deiner Geräte Informationen.

    Cookies, Geräte Bezeichnung oder andere Informationen, können aufbewahrt oder Zugang zu deinem Gerät erhalten, für den Grund, der oben angegeben wird.

  • Personalisierte Werbung und Inhalte, Messungen, Einblick in das Publikum und Produkt Entwicklung.

    Werbungen und Inhalte können personalisiert werden, basierend auf ein Profil. Mehr Daten können besser personalisierte Werbungen und Inhalte hinzufügen. Werbung und Inhalte können gezeigt und gemessen werden. Einblicke über das Publikum, welche die Werbung gesehen haben und den Inhalt, können abgeleitet werden. So wie Daten können genutzt werden, um es zu verbessern oder die Benutzer Erfahrung zu verbessern das System und die Software.

Wenn du “Ich stimme zu” klickst, erlaubst du uns, die Cookies zu benutzen die Geräte Bezeichnung, den Web oder ähnliche Technologien zu benutzen. Deine Settings, können in deinem Gerät bei deinem Browser geändert werden.

Für den bestimmten Zweck, berechtigten Interessen beruhen darauf, mehr als auf den Inhalt. Du kannst mehr darüber in unseren Privaten und Cookie Politik lesen.